Weather History for Olbia, Italy

Change the Weather History Date:

Thursday, October 27, 2011

  Actual Average Record
Temperature  
Mean Temperature 59 °F -  
Max Temperature 71 °F 63 °F 78 °F (2002)
Min Temperature 47 °F 47 °F 46 °F (2001)
Degree Days  
Heating Degree Days 6    
Growing Degree Days 9 (Base 50)    
Moisture  
Dew Point 51 °F    
Average Humidity 72    
Maximum Humidity 88    
Minimum Humidity 49    
Precipitation  
Precipitation 0.00 in 0.07 in - ()
Sea Level Pressure  
Sea Level Pressure 30.06 in    
Wind  
Wind Speed 4 mph ()    
Max Wind Speed 13 mph    
Max Gust Speed -    
Visibility 9.8 miles    
Events      
Averages and records for this station are not official NWS values.
T = Trace of Precipitation, MM = Missing Value Source: Averaged Metar Reports

Daily Weather History Graph

Daily Weather History Graph

Search for Another Location

Airport:

Trip Planner

Search our weather history database for the weather conditions in past years. The results will help you decide how hot, cold, wet, or windy it might be!

Date:

Astronomy

Oct. 27, 2011 Rise Set
Actual Time 7:46 AM CEST 6:24 PM CEST
Civil Twilight 7:17 AM CEST 6:53 PM CEST
Nautical Twilight 6:45 AM CEST 7:25 PM CEST
Astronomical Twilight 6:13 AM CEST 7:57 PM CEST
Moon 8:29 AM CEST (10/27) 6:39 PM CEST (10/27)
Length of Visible Light 11h 35m
Length of Day
10h 38m
New Moon, 1% of the Moon is Illuminated
Oct 27
New Moon
Nov 2
First Quarter
Nov 10
Full
Nov 18
Last Quarter
Nov 25
New

Hourly Weather History & Observations

Time (CEST) Temp. Dew Point Humidity Pressure Visibility Wind Dir Wind Speed Gust Speed Precip Events Conditions
12:20 AM 51.8 °F 46.4 °F 82% 30.09 in - SSW 2.3 mph - N/A   Clear
12:50 AM 53.6 °F 48.2 °F 82% 30.09 in - SW 5.8 mph - N/A   Clear
1:20 AM 53.6 °F 48.2 °F 82% 30.09 in - Variable 1.2 mph - N/A   Clear
1:50 AM 53.6 °F 48.2 °F 82% 30.06 in - SSW 3.5 mph - N/A   Clear
2:00 AM 53 °F 47 °F 75% 30.06 in 12 mi SW 3.5 mph - -  
2:20 AM 51.8 °F 46.4 °F 82% 30.06 in - SSW 2.3 mph - N/A   Clear
2:50 AM 50.0 °F 46.4 °F 87% 30.06 in - SW 1.2 mph - N/A   Clear
3:20 AM 51.8 °F 48.2 °F 88% 30.06 in - South 3.5 mph - N/A   Clear
3:50 AM 51.8 °F 46.4 °F 82% 30.06 in - SSW 4.6 mph - N/A   Clear
4:20 AM 50.0 °F 46.4 °F 87% 30.06 in - Variable 2.3 mph - N/A   Clear
4:50 AM 48.2 °F 44.6 °F 87% 30.06 in - WSW 1.2 mph - N/A   Clear
5:00 AM 51 °F 47 °F 82% 30.06 in 12 mi SW 2.3 mph - -  
5:20 AM 50.0 °F 46.4 °F 87% 30.06 in - SW 4.6 mph - N/A   Clear
5:50 AM 48.2 °F 44.6 °F 87% 30.06 in - SSW 4.6 mph - N/A   Clear
6:20 AM 50.0 °F 46.4 °F 87% 30.06 in - WSW 3.5 mph - N/A   Clear
6:50 AM 50.0 °F 46.4 °F 87% 30.06 in - SW 4.6 mph - N/A   Clear
7:20 AM 50.0 °F 46.4 °F 87% 30.06 in - SW 4.6 mph - N/A   Clear
7:50 AM 48.2 °F 44.6 °F 87% 30.06 in - Variable 2.3 mph - N/A   Clear
8:00 AM 48 °F 45 °F 85% 30.06 in 12 mi WSW 3.5 mph - -   Clear
8:20 AM 50.0 °F 46.4 °F 87% 30.06 in - SW 4.6 mph - N/A   Clear
8:50 AM 51.8 °F 48.2 °F 88% 30.06 in - Variable 2.3 mph - N/A   Clear
9:20 AM 53.6 °F 48.2 °F 82% 30.09 in - Variable 2.3 mph - N/A   Clear
9:50 AM 55.4 °F 50.0 °F 82% 30.09 in - SSW 3.5 mph - N/A   Clear
10:20 AM 59.0 °F 50.0 °F 72% 30.09 in - SW 3.5 mph - N/A   Clear
10:50 AM 60.8 °F 51.8 °F 72% 30.09 in - Variable 1.2 mph - N/A   Clear
11:00 AM 62 °F 51 °F 58% 30.09 in 12 mi WSW 1.2 mph - -   Scattered Clouds
11:20 AM 64.4 °F 50.0 °F 59% 30.09 in - Calm Calm - N/A   Clear
11:50 AM 66.2 °F 53.6 °F 64% 30.09 in - ENE 3.5 mph - N/A   Clear
12:20 PM 66.2 °F 53.6 °F 64% 30.06 in - NNE 6.9 mph - N/A   Clear
12:50 PM 69.8 °F 55.4 °F 60% 30.06 in 6.2 mi NE 9.2 mph - N/A   Partly Cloudy
1:20 PM 69.8 °F 55.4 °F 60% 30.06 in 6.2 mi NE 10.4 mph - N/A   Partly Cloudy
1:50 PM 68.0 °F 57.2 °F 68% 30.04 in - NE 11.5 mph - N/A   Clear
2:00 PM 68 °F 58 °F 61% 30.04 in 12 mi NE 11.5 mph - -   Scattered Clouds
2:20 PM 68.0 °F 59.0 °F 73% 30.04 in - NE 10.4 mph - N/A   Clear
2:50 PM 66.2 °F 59.0 °F 78% 30.04 in - NNE 12.7 mph - N/A   Clear
3:20 PM 69.8 °F 57.2 °F 64% 30.04 in - NE 12.7 mph - N/A   Clear
3:50 PM 69.8 °F 57.2 °F 64% 30.04 in 6.2 mi ENE 10.4 mph - N/A   Partly Cloudy
4:20 PM 71.6 °F 57.2 °F 60% 30.04 in 6.2 mi ENE 11.5 mph - N/A   Partly Cloudy
4:50 PM 69.8 °F 55.4 °F 60% 30.04 in 6.2 mi East 10.4 mph - N/A   Partly Cloudy
5:00 PM 71 °F 56 °F 49% 30.04 in 12 mi East 8.1 mph - -   Scattered Clouds
5:20 PM 69.8 °F 55.4 °F 60% 30.04 in - East 9.2 mph - N/A   Clear
5:50 PM 68.0 °F 55.4 °F 64% 30.04 in - East 8.1 mph - N/A   Clear
6:20 PM 68.0 °F 53.6 °F 60% 30.04 in - East 9.2 mph - N/A   Clear
6:50 PM 68.0 °F 53.6 °F 60% 30.04 in - East 10.4 mph - N/A   Clear
7:20 PM 66.2 °F 51.8 °F 60% 30.04 in - East 9.2 mph - N/A   Clear
7:50 PM 66.2 °F 51.8 °F 60% 30.04 in - Variable 4.6 mph - N/A   Clear
8:00 PM 66 °F 52 °F 51% 30.06 in 12 mi ESE 3.5 mph - -   Scattered Clouds
8:20 PM 66.2 °F 51.8 °F 60% 30.06 in - Variable 3.5 mph - N/A   Clear
8:50 PM 64.4 °F 51.8 °F 64% 30.06 in - Variable 3.5 mph - N/A   Clear
9:20 PM 66.2 °F 53.6 °F 64% 30.06 in - Variable 3.5 mph - N/A   Clear
9:50 PM 66.2 °F 53.6 °F 64% 30.09 in - Variable 3.5 mph - N/A   Clear
10:20 PM 64.4 °F 53.6 °F 68% 30.09 in - ESE 3.5 mph - N/A   Clear
10:50 PM 66.2 °F 55.4 °F 68% 30.09 in - East 4.6 mph - N/A   Clear
11:00 PM 66 °F 55 °F 58% 30.09 in 12 mi ESE 3.5 mph - -  
11:20 PM 66.2 °F 55.4 °F 68% 30.09 in - ESE 3.5 mph - N/A   Clear
11:50 PM 66.2 °F 55.4 °F 68% 30.09 in - Variable 2.3 mph - N/A   Clear